"Pseudo-MPEC" for SJA0139

Created 2024 Jul 20 7:22:06 UT using Find_Orb

Click here for an explanation of pseudo-MPECs

 
 Astrometry: 
     SJA0139*KB2024 07 08.95989 17 23 24.48 +29 49 14.1    ~7967 19.3 VZNEOCP185
     SJA0139 KB2024 07 08.98052 17 23 31.10 +29 49 05.4    ~7967x      ZNEOCP185
     SJA0139 KB2024 07 09.00294 17 23 38.39 +29 48 50.6    ~7967 20.7 VZNEOCP185
     SJA0139 1C2024 07 12.32050317 41 31.858+29 11 23.45   ~7CEq       LNEOCP658
     SJA0139 1C2024 07 12.32375617 41 32.844+29 11 20.83   ~7CEq       LNEOCP658
     SJA0139 1C2024 07 12.32699617 41 33.884+29 11 18.58   ~7CEq       LNEOCP658
     SJA0139 1C2024 07 12.33023717 41 34.792+29 11 15.67   ~7CEq       LNEOCP658

Station data:
(185) Observatoire astronomique jurassien  (N47.353045 E7.421900)
   Switzerland.  Observer M. Ory. 0.61-m f/3.88 reflector + CCD.
(658) Dominion Astrophysical Observatory  (N48.519984 W123.417000)
   Canada/BritColumbia.  Observer D. D. Balam. Measurers D. D. Balam, D. W.
   E. Green, C. E. Spratt. 1.82-m reflector + CCD.

Orbital elements:  SJA0139
   Perihelion 2024 Jun 21.42445 +/- 4.14 TT = 10:11:12 (JD 2460482.92445)
Epoch 2024 Jul 12.0 TT = JDT 2460503.5   Earth MOID: 0.1941   Ju: 0.0718
M   1.03702271 +/- 5.4              Sa: 0.4128                   AutoNEOCP
n   0.05040074 +/- 0.242            Peri.   48.67359 +/- 16
a   7.25846473 +/- 9.76             Node   215.92954 +/- 13
e   0.8415829 +/- 0.409             Incl.   11.28069 +/- 2.7
P  19.55542                H 20.73  G  0.15   U 11.8
q 1.14986447 +/- 0.0671    Q 13.3670650 +/- 19.4          (J2000 ecliptic)
6 of 7 observations 2024 July 8-12; mean residual 0".30
Residuals in arcseconds: 
240708 185  .04+  .10-    240712 658  .06+  .51-    240712 658  .29-  .03-    
240708 185( .49-  2.4+)   240712 658  .02+  .37-    
240709 185  .02+  .01+    240712 658  .73+  .12+    

Ephemerides (geocentric):
Date (UTC) HH   RA             Dec           delta  r     elong  mag " sig PA
---- --------  ------------   ------------  ------ ------ -----  --- --------
2024 07 20 07  18 19 51.319   +26 43 01.09  .30646 1.2249 126.9 20.2  578  91
2024 07 20 08  18 20 02.250   +26 42 04.32  .30664 1.2251 126.9 20.2  583  91
2024 07 20 09  18 20 13.169   +26 41 07.46  .30681 1.2253 126.9 20.2  587  91
2024 07 20 10  18 20 24.077   +26 40 10.51  .30699 1.2255 127.0 20.2  592  91
2024 07 20 11  18 20 34.974   +26 39 13.48  .30716 1.2257 127.0 20.2  597  91
2024 07 20 12  18 20 45.859   +26 38 16.37  .30734 1.2259 127.0 20.2  601  91
2024 07 20 13  18 20 56.733   +26 37 19.17  .30751 1.2261 127.0 20.2  606  91
2024 07 20 14  18 21 07.596   +26 36 21.88  .30769 1.2263 127.1 20.2  610  91
2024 07 20 15  18 21 18.447   +26 35 24.51  .30787 1.2265 127.1 20.2  615  91
2024 07 20 16  18 21 29.287   +26 34 27.06  .30804 1.2268 127.1 20.2  620  91
2024 07 20 17  18 21 40.116   +26 33 29.53  .30822 1.2270 127.1 20.2  624  91
2024 07 20 18  18 21 50.934   +26 32 31.91  .30840 1.2272 127.1 20.2  629  91
2024 07 20 19  18 22 01.740   +26 31 34.21  .30858 1.2274 127.2 20.2  633  91
2024 07 20 20  18 22 12.535   +26 30 36.42  .30875 1.2276 127.2 20.2  638  91
2024 07 20 21  18 22 23.319   +26 29 38.56  .30893 1.2278 127.2 20.2  643  91
2024 07 20 22  18 22 34.092   +26 28 40.61  .30911 1.2280 127.2 20.2  648  91
2024 07 20 23  18 22 44.853   +26 27 42.58  .30929 1.2282 127.3 20.2  652  91
2024 07 21 00  18 22 55.603   +26 26 44.47  .30947 1.2284 127.3 20.2  657  91
2024 07 21 01  18 23 06.342   +26 25 46.28  .30964 1.2286 127.3 20.2  662  91
2024 07 21 02  18 23 17.069   +26 24 48.00  .30982 1.2289 127.3 20.2  666  91
2024 07 21 03  18 23 27.785   +26 23 49.65  .31000 1.2291 127.3 20.2  671  91
2024 07 21 04  18 23 38.490   +26 22 51.21  .31018 1.2293 127.4 20.2  676  91
2024 07 21 05  18 23 49.184   +26 21 52.70  .31036 1.2295 127.4 20.2  681  91
2024 07 21 06  18 23 59.867   +26 20 54.10  .31054 1.2297 127.4 20.2  685  91
2024 07 21 07  18 24 10.538   +26 19 55.43  .31072 1.2299 127.4 20.2  690  91
2024 07 21 08  18 24 21.198   +26 18 56.68  .31090 1.2301 127.5 20.2  695  91
2024 07 21 09  18 24 31.847   +26 17 57.85  .31108 1.2303 127.5 20.2  700  91
2024 07 21 10  18 24 42.485   +26 16 58.94  .31126 1.2306 127.5 20.2  704  91
2024 07 21 11  18 24 53.111   +26 15 59.95  .31144 1.2308 127.5 20.2  709  91
2024 07 21 12  18 25 03.727   +26 15 00.88  .31163 1.2310 127.6 20.3  714  91
2024 07 21 13  18 25 14.331   +26 14 01.74  .31181 1.2312 127.6 20.3  719  91
2024 07 21 14  18 25 24.924   +26 13 02.51  .31199 1.2314 127.6 20.3  724  91
2024 07 21 15  18 25 35.505   +26 12 03.21  .31217 1.2316 127.6 20.3  728  91
2024 07 21 16  18 25 46.076   +26 11 03.84  .31235 1.2319 127.6 20.3  733  91
2024 07 21 17  18 25 56.635   +26 10 04.38  .31253 1.2321 127.7 20.3  738  91
2024 07 21 18  18 26 07.183   +26 09 04.85  .31272 1.2323 127.7 20.3  743  91
2024 07 21 19  18 26 17.720   +26 08 05.25  .31290 1.2325 127.7 20.3  748  91
2024 07 21 20  18 26 28.246   +26 07 05.57  .31308 1.2327 127.7 20.3  753  91
2024 07 21 21  18 26 38.761   +26 06 05.81  .31327 1.2329 127.8 20.3  758  92
2024 07 21 22  18 26 49.264   +26 05 05.98  .31345 1.2331 127.8 20.3  763  92
2024 07 21 23  18 26 59.757   +26 04 06.07  .31363 1.2334 127.8 20.3  767  92
2024 07 22 00  18 27 10.238   +26 03 06.09  .31382 1.2336 127.8 20.3  772  92
2024 07 22 01  18 27 20.708   +26 02 06.03  .31400 1.2338 127.8 20.3  777  92
2024 07 22 02  18 27 31.167   +26 01 05.90  .31418 1.2340 127.9 20.3  782  92
2024 07 22 03  18 27 41.615   +26 00 05.70  .31437 1.2342 127.9 20.3  787  92
2024 07 22 04  18 27 52.052   +25 59 05.42  .31455 1.2345 127.9 20.3  792  92
2024 07 22 05  18 28 02.477   +25 58 05.07  .31474 1.2347 127.9 20.3  797  92
2024 07 22 06  18 28 12.892   +25 57 04.64  .31492 1.2349 128.0 20.3  802  92